Time,TemperatureF,DewpointF,PressureIn,WindDirection,WindDirectionDegrees,WindSpeedMPH,WindSpeedGustMPH,Humidity,HourlyPrecipIn,Conditions,Clouds,dailyrainin,SoftwareType,DateUTC
2013-01-20 00:00:00,20.2,13.6,30.52,East,94,4.0,9.0,75,0.00,,,0.00,VWS V14.01,2013-01-20 07:00:00,
2013-01-20 00:03:00,19.9,13.3,30.51,East,84,3.0,6.0,75,0.00,,,0.00,VWS V14.01,2013-01-20 07:03:00,
2013-01-20 00:08:00,19.5,12.9,30.51,East,89,0.0,6.0,75,0.00,,,0.00,VWS V14.01,2013-01-20 07:08:00,
2013-01-20 00:13:00,19.2,12.6,30.51,East,91,2.0,6.0,75,0.00,,,0.00,VWS V14.01,2013-01-20 07:13:00,
2013-01-20 00:18:00,18.4,11.5,30.50,ESE,107,1.0,7.0,74,0.00,,,0.00,VWS V14.01,2013-01-20 07:18:00,
2013-01-20 00:23:00,18.1,11.5,30.50,NE,41,0.0,7.0,75,0.00,,,0.00,VWS V14.01,2013-01-20 07:23:00,
2013-01-20 00:28:00,17.8,11.2,30.50,ENE,68,0.0,7.0,75,0.00,,,0.00,VWS V14.01,2013-01-20 07:28:00,
2013-01-20 00:30:00,17.8,11.5,30.52,ESE,115,0.0,7.0,76,0.00,,,0.00,VWS V14.01,2013-01-20 07:30:00,
2013-01-20 00:33:00,17.8,11.8,30.52,ENE,71,0.0,3.0,77,0.00,,,0.00,VWS V14.01,2013-01-20 07:33:00,
2013-01-20 00:38:00,17.7,11.7,30.52,East,96,0.0,7.0,77,0.00,,,0.00,VWS V14.01,2013-01-20 07:38:00,
2013-01-20 00:43:00,17.3,11.3,30.52,East,96,0.0,7.0,77,0.00,,,0.00,VWS V14.01,2013-01-20 07:43:00,
2013-01-20 00:48:00,17.0,11.1,30.52,East,91,0.0,7.0,77,0.00,,,0.00,VWS V14.01,2013-01-20 07:48:00,
2013-01-20 00:53:00,16.9,10.9,30.52,East,91,0.0,7.0,77,0.00,,,0.00,VWS V14.01,2013-01-20 07:53:00,
2013-01-20 00:58:00,16.4,10.5,30.52,North,0,1.0,7.0,77,0.00,,,0.00,VWS V14.01,2013-01-20 07:58:00,
2013-01-20 01:00:00,16.4,10.5,30.55,East,91,0.0,7.0,77,0.00,,BKN080,0.00,VWS V14.01,2013-01-20 08:00:00,
2013-01-20 01:03:00,16.4,10.8,30.54,East,86,0.0,3.0,78,0.00,,,0.00,VWS V14.01,2013-01-20 08:03:00,
2013-01-20 01:08:00,16.1,9.9,30.54,East,81,1.0,9.0,76,0.00,,,0.00,VWS V14.01,2013-01-20 08:08:00,
2013-01-20 01:13:00,15.7,9.5,30.54,East,84,2.0,9.0,76,0.00,,,0.00,VWS V14.01,2013-01-20 08:13:00,
2013-01-20 01:18:00,15.4,8.9,30.47,North,0,0.0,9.0,75,0.00,,,0.00,VWS V14.01,2013-01-20 08:18:00,
2013-01-20 01:23:00,15.1,8.3,30.47,NW,323,0.0,9.0,74,0.00,,,0.00,VWS V14.01,2013-01-20 08:23:00,
2013-01-20 01:28:00,14.9,8.4,30.47,East,97,0.0,9.0,75,0.00,,,0.00,VWS V14.01,2013-01-20 08:28:00,
2013-01-20 01:30:00,14.9,8.4,30.48,NE,34,0.0,9.0,75,0.00,,,0.00,VWS V14.01,2013-01-20 08:30:00,
2013-01-20 01:33:00,14.9,8.4,30.48,East,87,0.0,10.0,75,0.00,,,0.00,VWS V14.01,2013-01-20 08:33:00,
2013-01-20 01:38:00,14.6,7.8,30.48,ESE,103,1.0,10.0,74,0.00,,,0.00,VWS V14.01,2013-01-20 08:38:00,
2013-01-20 01:43:00,14.6,7.8,30.48,East,79,0.0,10.0,74,0.00,,,0.00,VWS V14.01,2013-01-20 08:43:00,
2013-01-20 01:48:00,14.4,7.6,30.49,East,85,0.0,10.0,74,0.00,,,0.00,VWS V14.01,2013-01-20 08:48:00,
2013-01-20 01:53:00,14.4,7.6,30.49,East,100,1.0,10.0,74,0.00,,,0.00,VWS V14.01,2013-01-20 08:53:00,
2013-01-20 01:58:00,14.4,7.6,30.49,East,93,2.0,10.0,74,0.00,,,0.00,VWS V14.01,2013-01-20 08:58:00,
2013-01-20 02:03:00,14.1,7.1,30.50,East,86,2.0,10.0,73,0.00,,,0.00,VWS V14.01,2013-01-20 09:03:00,
2013-01-20 02:08:00,14.0,6.7,30.50,East,89,2.0,10.0,72,0.00,,,0.00,VWS V14.01,2013-01-20 09:08:00,
2013-01-20 02:13:00,14.0,7.0,30.50,East,88,1.0,10.0,73,0.00,,,0.00,VWS V14.01,2013-01-20 09:13:00,
2013-01-20 02:18:00,14.0,7.2,30.49,SSE,147,0.0,10.0,74,0.00,,,0.00,VWS V14.01,2013-01-20 09:18:00,
2013-01-20 02:23:00,14.0,7.2,30.49,ENE,77,2.0,10.0,74,0.00,,,0.00,VWS V14.01,2013-01-20 09:23:00,
2013-01-20 02:28:00,13.8,6.8,30.49,East,96,3.0,10.0,73,0.00,,,0.00,VWS V14.01,2013-01-20 09:28:00,
2013-01-20 02:30:00,13.8,6.5,30.49,SE,131,4.0,10.0,72,0.00,,BKN080,0.00,VWS V14.01,2013-01-20 09:30:00,
2013-01-20 02:33:00,13.6,6.3,30.49,East,101,1.0,4.0,72,0.00,,,0.00,VWS V14.01,2013-01-20 09:33:00,
2013-01-20 02:38:00,13.5,6.5,30.49,ESE,103,0.0,6.0,73,0.00,,,0.00,VWS V14.01,2013-01-20 09:38:00,
2013-01-20 02:43:00,13.5,6.5,30.49,NE,53,0.0,6.0,73,0.00,,,0.00,VWS V14.01,2013-01-20 09:43:00,
2013-01-20 02:48:00,13.3,6.6,30.49,ESE,105,2.0,6.0,74,0.00,,,0.00,VWS V14.01,2013-01-20 09:48:00,
2013-01-20 02:53:00,13.1,5.8,30.49,East,84,3.0,7.0,72,0.00,,,0.00,VWS V14.01,2013-01-20 09:53:00,
2013-01-20 02:58:00,12.9,5.6,30.49,East,86,0.0,7.0,72,0.00,,,0.00,VWS V14.01,2013-01-20 09:58:00,
2013-01-20 03:00:00,12.9,5.6,30.51,North,0,0.0,7.0,72,0.00,,BKN080,0.00,VWS V14.01,2013-01-20 10:00:00,
2013-01-20 03:03:00,12.9,6.2,30.51,East,82,0.0,3.0,74,0.00,,,0.00,VWS V14.01,2013-01-20 10:03:00,
2013-01-20 03:08:00,12.9,6.2,30.51,East,101,1.0,4.0,74,0.00,,,0.00,VWS V14.01,2013-01-20 10:08:00,
2013-01-20 03:13:00,12.8,5.8,30.51,WNW,302,0.0,4.0,73,0.00,,,0.00,VWS V14.01,2013-01-20 10:13:00,
2013-01-20 03:18:00,12.6,5.3,30.51,ESE,105,2.0,7.0,72,0.00,,,0.00,VWS V14.01,2013-01-20 10:18:00,
2013-01-20 03:23:00,12.4,5.4,30.51,ESE,115,3.0,7.0,73,0.00,,,0.00,VWS V14.01,2013-01-20 10:23:00,
2013-01-20 03:28:00,12.3,5.6,30.51,East,94,0.0,7.0,74,0.00,,,0.00,VWS V14.01,2013-01-20 10:28:00,
2013-01-20 03:30:00,12.3,5.6,30.52,East,82,0.0,7.0,74,0.00,,,0.00,VWS V14.01,2013-01-20 10:30:00,
2013-01-20 03:33:00,12.3,5.6,30.52,SE,130,0.0,4.0,74,0.00,,,0.00,VWS V14.01,2013-01-20 10:33:00,
2013-01-20 03:38:00,12.1,5.4,30.52,East,97,1.0,4.0,74,0.00,,,0.00,VWS V14.01,2013-01-20 10:38:00,
2013-01-20 03:43:00,11.7,4.7,30.52,ENE,76,0.0,4.0,73,0.00,,,0.00,VWS V14.01,2013-01-20 10:43:00,
2013-01-20 03:48:00,11.6,4.9,30.52,ESE,117,0.0,5.0,74,0.00,,,0.00,VWS V14.01,2013-01-20 10:48:00,
2013-01-20 03:53:00,11.6,4.9,30.52,East,84,0.0,5.0,74,0.00,,,0.00,VWS V14.01,2013-01-20 10:53:00,
2013-01-20 03:58:00,11.7,5.3,30.52,East,98,0.0,5.0,75,0.00,,,0.00,VWS V14.01,2013-01-20 10:58:00,
2013-01-20 04:00:00,11.7,5.3,30.52,East,97,0.0,5.0,75,0.00,,,0.00,VWS V14.01,2013-01-20 11:00:00,
2013-01-20 04:03:00,11.7,5.0,30.52,ESE,103,0.0,3.0,74,0.00,,,0.00,VWS V14.01,2013-01-20 11:03:00,
2013-01-20 04:08:00,11.4,4.4,30.52,East,90,0.0,5.0,73,0.00,,,0.00,VWS V14.01,2013-01-20 11:08:00,
2013-01-20 04:13:00,11.2,4.2,30.52,SE,127,0.0,5.0,73,0.00,,,0.00,VWS V14.01,2013-01-20 11:13:00,
2013-01-20 04:18:00,11.2,4.2,30.53,ESE,112,0.0,5.0,73,0.00,,,0.00,VWS V14.01,2013-01-20 11:18:00,
2013-01-20 04:23:00,11.2,4.2,30.53,East,90,0.0,5.0,73,0.00,,,0.00,VWS V14.01,2013-01-20 11:23:00,
2013-01-20 04:28:00,11.1,4.2,30.53,SE,136,0.0,6.0,73,0.00,,,0.00,VWS V14.01,2013-01-20 11:28:00,
2013-01-20 04:30:00,11.1,4.2,30.53,East,90,0.0,6.0,73,0.00,,,0.00,VWS V14.01,2013-01-20 11:30:00,
2013-01-20 04:33:00,11.1,4.2,30.53,ESE,102,0.0,0.0,73,0.00,,,0.00,VWS V14.01,2013-01-20 11:33:00,
2013-01-20 04:38:00,10.9,4.2,30.53,SSE,147,0.0,5.0,74,0.00,,,0.00,VWS V14.01,2013-01-20 11:38:00,
2013-01-20 04:43:00,10.7,4.1,30.53,ESE,112,0.0,5.0,74,0.00,,,0.00,VWS V14.01,2013-01-20 11:43:00,
2013-01-20 04:48:00,10.5,3.9,30.53,East,101,1.0,5.0,74,0.00,,,0.00,VWS V14.01,2013-01-20 11:48:00,
2013-01-20 04:53:00,10.4,3.8,30.53,ESE,120,0.0,5.0,74,0.00,,,0.00,VWS V14.01,2013-01-20 11:53:00,
2013-01-20 04:58:00,10.4,3.8,30.53,SE,129,0.0,5.0,74,0.00,,,0.00,VWS V14.01,2013-01-20 11:58:00,
2013-01-20 05:00:00,10.2,3.6,30.54,East,98,0.0,5.0,74,0.00,,BKN080,0.00,VWS V14.01,2013-01-20 12:00:00,
2013-01-20 05:03:00,10.2,3.9,30.54,East,97,0.0,0.0,75,0.00,,,0.00,VWS V14.01,2013-01-20 12:03:00,
2013-01-20 05:08:00,10.2,3.9,30.54,ESE,106,0.0,4.0,75,0.00,,,0.00,VWS V14.01,2013-01-20 12:08:00,
2013-01-20 05:13:00,10.2,3.6,30.54,East,98,0.0,7.0,74,0.00,,,0.00,VWS V14.01,2013-01-20 12:13:00,
2013-01-20 05:18:00,10.0,3.4,30.59,East,85,0.0,7.0,74,0.00,,,0.00,VWS V14.01,2013-01-20 12:18:00,
2013-01-20 05:23:00,10.0,3.4,30.59,ESE,115,0.0,7.0,74,0.00,,,0.00,VWS V14.01,2013-01-20 12:23:00,
2013-01-20 05:28:00,10.0,4.0,30.59,East,98,1.0,7.0,76,0.00,,,0.00,VWS V14.01,2013-01-20 12:28:00,
2013-01-20 05:30:00,10.0,4.0,30.59,ESE,110,0.0,7.0,76,0.00,,,0.00,VWS V14.01,2013-01-20 12:30:00,
2013-01-20 05:33:00,9.9,3.9,30.59,ESE,102,0.0,3.0,76,0.00,,,0.00,VWS V14.01,2013-01-20 12:33:00,
2013-01-20 05:38:00,9.9,3.6,30.59,East,89,0.0,4.0,75,0.00,,,0.00,VWS V14.01,2013-01-20 12:38:00,
2013-01-20 05:43:00,9.7,3.1,30.59,East,81,0.0,4.0,74,0.00,,,0.00,VWS V14.01,2013-01-20 12:43:00,
2013-01-20 05:48:00,9.5,2.9,30.59,ESE,111,0.0,4.0,74,0.00,,,0.00,VWS V14.01,2013-01-20 12:48:00,
2013-01-20 05:53:00,9.7,3.7,30.59,East,82,0.0,4.0,76,0.00,,,0.00,VWS V14.01,2013-01-20 12:53:00,
2013-01-20 05:58:00,9.5,3.2,30.59,ESE,108,1.0,4.0,75,0.00,,,0.00,VWS V14.01,2013-01-20 12:58:00,
2013-01-20 06:00:00,9.5,3.2,30.59,ESE,108,0.0,4.0,75,0.00,,BKN080,0.00,VWS V14.01,2013-01-20 13:00:00,
2013-01-20 06:03:00,9.3,3.0,30.59,East,96,0.0,1.0,75,0.00,,,0.00,VWS V14.01,2013-01-20 13:03:00,
2013-01-20 06:08:00,9.3,2.7,30.59,East,93,0.0,1.0,74,0.00,,,0.00,VWS V14.01,2013-01-20 13:08:00,
2013-01-20 06:13:00,9.3,3.0,30.59,ESE,111,0.0,1.0,75,0.00,,,0.00,VWS V14.01,2013-01-20 13:13:00,
2013-01-20 06:18:00,9.5,3.5,30.62,ESE,118,0.0,1.0,76,0.00,,,0.00,VWS V14.01,2013-01-20 13:18:00,
2013-01-20 06:23:00,9.3,3.0,30.62,East,101,0.0,1.0,75,0.00,,,0.00,VWS V14.01,2013-01-20 13:23:00,
2013-01-20 06:28:00,9.2,2.6,30.62,SSE,149,0.0,1.0,74,0.00,,,0.00,VWS V14.01,2013-01-20 13:28:00,
2013-01-20 06:30:00,9.0,2.7,30.62,East,100,0.0,1.0,75,0.00,,BKN080,0.00,VWS V14.01,2013-01-20 13:30:00,
2013-01-20 06:33:00,9.0,2.4,30.62,East,83,0.0,3.0,74,0.00,,,0.00,VWS V14.01,2013-01-20 13:33:00,
2013-01-20 06:38:00,8.8,2.2,30.62,East,82,0.0,3.0,74,0.00,,,0.00,VWS V14.01,2013-01-20 13:38:00,
2013-01-20 06:43:00,8.8,2.2,30.62,East,92,0.0,3.0,74,0.00,,,0.00,VWS V14.01,2013-01-20 13:43:00,
2013-01-20 06:48:00,8.6,2.0,30.62,East,85,0.0,4.0,74,0.00,,,0.00,VWS V14.01,2013-01-20 13:48:00,
2013-01-20 06:53:00,8.3,1.7,30.62,ESE,122,0.0,4.0,74,0.00,,,0.00,VWS V14.01,2013-01-20 13:53:00,
2013-01-20 06:58:00,8.3,2.0,30.62,ESE,108,0.0,4.0,75,0.00,,,0.00,VWS V14.01,2013-01-20 13:58:00,
2013-01-20 07:00:00,8.1,1.5,30.62,East,96,0.0,4.0,74,0.00,,,0.00,VWS V14.01,2013-01-20 14:00:00,
2013-01-20 07:03:00,8.1,1.8,30.62,ESE,113,0.0,3.0,75,0.00,,,0.00,VWS V14.01,2013-01-20 14:03:00,
2013-01-20 07:08:00,8.1,1.8,30.62,SE,143,0.0,3.0,75,0.00,,,0.00,VWS V14.01,2013-01-20 14:08:00,
2013-01-20 07:13:00,8.1,1.8,30.62,East,95,0.0,3.0,75,0.00,,,0.00,VWS V14.01,2013-01-20 14:13:00,
2013-01-20 07:18:00,7.9,1.6,30.63,ESE,102,0.0,3.0,75,0.00,,,0.00,VWS V14.01,2013-01-20 14:18:00,
2013-01-20 07:23:00,7.9,1.6,30.63,East,96,0.0,3.0,75,0.00,,,0.00,VWS V14.01,2013-01-20 14:23:00,
2013-01-20 07:28:00,7.7,1.4,30.63,East,98,0.0,3.0,75,0.00,,,0.00,VWS V14.01,2013-01-20 14:28:00,
2013-01-20 07:30:00,7.7,1.4,30.63,East,98,0.0,3.0,75,0.00,,BKN080,0.00,VWS V14.01,2013-01-20 14:30:00,
2013-01-20 07:33:00,7.7,1.4,30.63,East,94,0.0,0.0,75,0.00,,,0.00,VWS V14.01,2013-01-20 14:33:00,
2013-01-20 07:38:00,7.6,1.4,30.63,East,86,0.0,0.0,75,0.00,,,0.00,VWS V14.01,2013-01-20 14:38:00,
2013-01-20 07:43:00,7.4,1.1,30.63,ESE,119,0.0,0.0,75,0.00,,,0.00,VWS V14.01,2013-01-20 14:43:00,
2013-01-20 07:48:00,7.4,1.1,30.63,ESE,102,0.0,0.0,75,0.00,,,0.00,VWS V14.01,2013-01-20 14:48:00,
2013-01-20 07:53:00,7.2,1.0,30.63,East,100,0.0,0.0,75,0.00,,,0.00,VWS V14.01,2013-01-20 14:53:00,
2013-01-20 07:58:00,7.0,0.8,30.63,ESE,103,0.0,1.0,75,0.00,,,0.00,VWS V14.01,2013-01-20 14:58:00,
2013-01-20 08:00:00,7.0,0.8,30.63,ESE,114,0.0,2.0,75,0.00,,BKN080,0.00,VWS V14.01,2013-01-20 15:00:00,
2013-01-20 08:03:00,7.0,0.8,30.63,ESE,113,0.0,0.0,75,0.00,,,0.00,VWS V14.01,2013-01-20 15:03:00,
2013-01-20 08:08:00,6.9,0.7,30.63,ESE,105,0.0,1.0,75,0.00,,,0.00,VWS V14.01,2013-01-20 15:08:00,
2013-01-20 08:13:00,6.7,0.5,30.63,ESE,105,0.0,1.0,75,0.00,,,0.00,VWS V14.01,2013-01-20 15:13:00,
2013-01-20 08:18:00,6.7,0.8,30.64,ESE,105,0.0,1.0,76,0.00,,,0.00,VWS V14.01,2013-01-20 15:18:00,
2013-01-20 08:23:00,6.5,0.3,30.64,ESE,105,0.0,1.0,75,0.00,,,0.00,VWS V14.01,2013-01-20 15:23:00,
2013-01-20 08:28:00,6.3,0.1,30.64,ESE,105,0.0,1.0,75,0.00,,,0.00,VWS V14.01,2013-01-20 15:28:00,
2013-01-20 08:30:00,6.3,0.1,30.65,ESE,105,0.0,1.0,75,0.00,,,0.00,VWS V14.01,2013-01-20 15:30:00,
2013-01-20 08:33:00,6.3,0.1,30.65,ESE,105,0.0,0.0,75,0.00,,,0.00,VWS V14.01,2013-01-20 15:33:00,
2013-01-20 08:38:00,6.3,0.1,30.65,East,91,0.0,1.0,75,0.00,,,0.00,VWS V14.01,2013-01-20 15:38:00,
2013-01-20 08:43:00,6.1,-0.1,30.65,ESE,112,0.0,2.0,75,0.00,,,0.00,VWS V14.01,2013-01-20 15:43:00,
2013-01-20 08:48:00,6.1,-0.1,30.65,ESE,112,0.0,2.0,75,0.00,,,0.00,VWS V14.01,2013-01-20 15:48:00,
2013-01-20 08:53:00,6.0,0.1,30.65,ESE,112,0.0,2.0,76,0.00,,,0.00,VWS V14.01,2013-01-20 15:53:00,
2013-01-20 08:58:00,6.0,0.1,30.65,ESE,112,0.0,2.0,76,0.00,,,0.00,VWS V14.01,2013-01-20 15:58:00,
2013-01-20 09:00:00,6.0,0.1,30.65,ESE,112,0.0,2.0,76,0.00,,BKN080,0.00,VWS V14.01,2013-01-20 16:00:00,
2013-01-20 09:03:00,6.0,0.1,30.65,ESE,112,0.0,0.0,76,0.00,,,0.00,VWS V14.01,2013-01-20 16:03:00,
2013-01-20 09:08:00,5.8,-0.4,30.65,ESE,112,0.0,0.0,75,0.00,,,0.00,VWS V14.01,2013-01-20 16:08:00,
2013-01-20 09:13:00,5.8,-0.4,30.65,ESE,112,0.0,0.0,75,0.00,,,0.00,VWS V14.01,2013-01-20 16:13:00,
2013-01-20 09:18:00,5.8,-0.1,30.66,ESE,112,0.0,0.0,76,0.00,,,0.00,VWS V14.01,2013-01-20 16:18:00,
2013-01-20 09:23:00,5.8,-0.1,30.66,ESE,112,0.0,0.0,76,0.00,,,0.00,VWS V14.01,2013-01-20 16:23:00,
2013-01-20 09:28:00,5.8,-0.1,30.66,ESE,112,0.0,0.0,76,0.00,,,0.00,VWS V14.01,2013-01-20 16:28:00,
2013-01-20 09:30:00,5.8,-0.1,30.66,ESE,112,0.0,0.0,76,0.00,,,0.00,VWS V14.01,2013-01-20 16:30:00,
2013-01-20 09:33:00,6.0,0.1,30.66,ESE,112,0.0,0.0,76,0.00,,,0.00,VWS V14.01,2013-01-20 16:33:00,
2013-01-20 09:38:00,6.0,0.1,30.66,ESE,112,0.0,0.0,76,0.00,,,0.00,VWS V14.01,2013-01-20 16:38:00,
2013-01-20 09:43:00,6.1,-0.1,30.66,ESE,112,0.0,0.0,75,0.00,,,0.00,VWS V14.01,2013-01-20 16:43:00,
2013-01-20 09:48:00,6.1,-0.1,30.66,ESE,112,0.0,0.0,75,0.00,,,0.00,VWS V14.01,2013-01-20 16:48:00,
2013-01-20 09:53:00,6.1,-0.1,30.66,ESE,112,0.0,0.0,75,0.00,,,0.00,VWS V14.01,2013-01-20 16:53:00,
2013-01-20 09:58:00,6.3,0.1,30.66,ESE,112,0.0,0.0,75,0.00,,,0.00,VWS V14.01,2013-01-20 16:58:00,
2013-01-20 10:00:00,6.3,0.1,30.67,ESE,112,0.0,0.0,75,0.00,,,0.00,VWS V14.01,2013-01-20 17:00:00,
2013-01-20 10:03:00,6.3,0.1,30.66,ESE,112,0.0,0.0,75,0.00,,,0.00,VWS V14.01,2013-01-20 17:03:00,
2013-01-20 10:08:00,6.5,0.0,30.66,East,95,0.0,0.0,74,0.00,,,0.00,VWS V14.01,2013-01-20 17:08:00,
2013-01-20 10:13:00,6.7,0.2,30.66,East,95,0.0,0.0,74,0.00,,,0.00,VWS V14.01,2013-01-20 17:13:00,
2013-01-20 10:18:00,7.0,0.5,30.66,East,93,0.0,0.0,74,0.00,,,0.00,VWS V14.01,2013-01-20 17:18:00,
2013-01-20 10:23:00,7.0,0.5,30.66,East,93,0.0,0.0,74,0.00,,,0.00,VWS V14.01,2013-01-20 17:23:00,
2013-01-20 10:28:00,7.0,0.2,30.66,East,93,0.0,0.0,73,0.00,,,0.00,VWS V14.01,2013-01-20 17:28:00,
2013-01-20 10:30:00,7.0,0.2,30.67,East,93,0.0,0.0,73,0.00,,BKN080,0.00,VWS V14.01,2013-01-20 17:30:00,
2013-01-20 10:33:00,7.2,0.4,30.66,East,93,0.0,0.0,73,0.00,,,0.00,VWS V14.01,2013-01-20 17:33:00,
2013-01-20 10:38:00,7.2,0.4,30.66,East,93,0.0,0.0,73,0.00,,,0.00,VWS V14.01,2013-01-20 17:38:00,
2013-01-20 10:43:00,7.4,0.6,30.66,East,93,0.0,0.0,73,0.00,,,0.00,VWS V14.01,2013-01-20 17:43:00,
2013-01-20 10:48:00,7.7,0.6,30.67,East,93,0.0,0.0,72,0.00,,,0.00,VWS V14.01,2013-01-20 17:48:00,
2013-01-20 10:53:00,8.1,1.0,30.67,East,93,0.0,0.0,72,0.00,,,0.00,VWS V14.01,2013-01-20 17:53:00,
2013-01-20 10:58:00,8.8,1.3,30.67,East,93,0.0,0.0,71,0.00,,,0.00,VWS V14.01,2013-01-20 17:58:00,
2013-01-20 11:00:00,9.0,1.5,30.65,East,93,0.0,0.0,71,0.00,,BKN080,0.00,VWS V14.01,2013-01-20 18:00:00,
2013-01-20 11:03:00,9.7,2.2,30.65,East,93,0.0,0.0,71,0.00,,,0.00,VWS V14.01,2013-01-20 18:03:00,
2013-01-20 11:08:00,10.4,2.3,30.65,East,93,0.0,0.0,69,0.00,,,0.00,VWS V14.01,2013-01-20 18:08:00,
2013-01-20 11:13:00,11.1,2.3,30.65,East,93,0.0,0.0,67,0.00,,,0.00,VWS V14.01,2013-01-20 18:13:00,
2013-01-20 11:18:00,11.6,2.1,30.66,East,93,0.0,0.0,65,0.00,,,0.00,VWS V14.01,2013-01-20 18:18:00,
2013-01-20 11:23:00,12.1,2.6,30.66,East,93,0.0,0.0,65,0.00,,,0.00,VWS V14.01,2013-01-20 18:23:00,
2013-01-20 11:28:00,12.3,2.5,30.66,East,93,0.0,0.0,64,0.00,,,0.00,VWS V14.01,2013-01-20 18:28:00,
2013-01-20 11:30:00,12.3,2.5,30.65,East,93,0.0,0.0,64,0.00,,,0.00,VWS V14.01,2013-01-20 18:30:00,
2013-01-20 11:33:00,11.9,2.1,30.65,East,93,0.0,0.0,64,0.00,,,0.00,VWS V14.01,2013-01-20 18:33:00,
2013-01-20 11:38:00,11.6,2.1,30.65,East,93,0.0,0.0,65,0.00,,,0.00,VWS V14.01,2013-01-20 18:38:00,
2013-01-20 11:43:00,12.1,2.6,30.65,East,93,0.0,0.0,65,0.00,,,0.00,VWS V14.01,2013-01-20 18:43:00,
2013-01-20 11:48:00,12.1,2.9,30.63,East,93,0.0,0.0,66,0.00,,,0.00,VWS V14.01,2013-01-20 18:48:00,
2013-01-20 11:52:00,12.6,3.1,30.63,East,93,0.0,0.0,65,0.00,,,0.00,VWS V14.01,2013-01-20 18:52:00,
2013-01-20 11:57:00,12.9,3.4,30.63,East,93,0.0,0.0,65,0.00,,,0.00,VWS V14.01,2013-01-20 18:57:00,
2013-01-20 12:02:00,13.3,3.8,30.62,East,91,0.0,0.0,65,0.00,,,0.00,VWS V14.01,2013-01-20 19:02:00,
2013-01-20 12:07:00,13.5,3.3,30.62,WNW,288,0.0,0.0,63,0.00,,,0.00,VWS V14.01,2013-01-20 19:07:00,
2013-01-20 12:12:00,13.5,3.6,30.62,NW,304,0.0,0.0,64,0.00,,,0.00,VWS V14.01,2013-01-20 19:12:00,
2013-01-20 12:17:00,13.6,3.7,30.62,NW,304,0.0,0.0,64,0.00,,,0.00,VWS V14.01,2013-01-20 19:17:00,
2013-01-20 12:22:00,13.8,3.5,30.62,NW,304,0.0,0.0,63,0.00,,,0.00,VWS V14.01,2013-01-20 19:22:00,
2013-01-20 12:27:00,14.4,4.5,30.62,NW,304,0.0,0.0,64,0.00,,,0.00,VWS V14.01,2013-01-20 19:27:00,
2013-01-20 12:30:00,14.6,4.3,30.61,NW,304,0.0,0.0,63,0.00,,,0.00,VWS V14.01,2013-01-20 19:30:00,
2013-01-20 12:32:00,15.2,4.5,30.61,NW,304,0.0,0.0,62,0.00,,,0.00,VWS V14.01,2013-01-20 19:32:00,
2013-01-20 12:37:00,15.7,5.4,30.61,NW,304,0.0,0.0,63,0.00,,,0.00,VWS V14.01,2013-01-20 19:37:00,
2013-01-20 12:42:00,15.9,5.2,30.61,NW,304,0.0,0.0,62,0.00,,,0.00,VWS V14.01,2013-01-20 19:42:00,
2013-01-20 12:47:00,16.5,5.1,30.60,NW,304,0.0,0.0,60,0.00,,,0.00,VWS V14.01,2013-01-20 19:47:00,
2013-01-20 12:52:00,16.4,5.0,30.60,NW,304,0.0,0.0,60,0.00,,,0.00,VWS V14.01,2013-01-20 19:52:00,
2013-01-20 12:57:00,15.9,4.5,30.60,NW,304,0.0,0.0,60,0.00,,,0.00,VWS V14.01,2013-01-20 19:57:00,
2013-01-20 13:00:00,15.6,4.2,30.59,NW,304,0.0,0.0,60,0.00,,BKN080,0.00,VWS V14.01,2013-01-20 20:00:00,
2013-01-20 13:02:00,15.4,4.4,30.59,NW,304,0.0,0.0,61,0.00,,,0.00,VWS V14.01,2013-01-20 20:02:00,
2013-01-20 13:07:00,15.1,4.4,30.59,NW,304,0.0,0.0,62,0.00,,,0.00,VWS V14.01,2013-01-20 20:07:00,
2013-01-20 13:12:00,15.1,4.8,30.59,NW,304,0.0,0.0,63,0.00,,,0.00,VWS V14.01,2013-01-20 20:12:00,
2013-01-20 13:17:00,15.2,4.9,30.60,NW,304,0.0,0.0,63,0.00,,,0.00,VWS V14.01,2013-01-20 20:17:00,
2013-01-20 13:22:00,15.6,4.9,30.60,NW,304,0.0,0.0,62,0.00,,,0.00,VWS V14.01,2013-01-20 20:22:00,
2013-01-20 13:27:00,15.6,4.6,30.60,NW,304,0.0,0.0,61,0.00,,,0.00,VWS V14.01,2013-01-20 20:27:00,
2013-01-20 13:30:00,15.6,4.6,30.58,NW,304,0.0,0.0,61,0.00,,BKN080,0.00,VWS V14.01,2013-01-20 20:30:00,
2013-01-20 13:32:00,15.7,5.0,30.58,NW,304,0.0,0.0,62,0.00,,,0.00,VWS V14.01,2013-01-20 20:32:00,
2013-01-20 13:37:00,15.9,4.8,30.58,NW,304,0.0,0.0,61,0.00,,,0.00,VWS V14.01,2013-01-20 20:37:00,
2013-01-20 13:42:00,15.9,4.5,30.58,NW,304,0.0,0.0,60,0.00,,,0.00,VWS V14.01,2013-01-20 20:42:00,
2013-01-20 13:47:00,16.1,4.7,30.57,NW,304,0.0,0.0,60,0.00,,,0.00,VWS V14.01,2013-01-20 20:47:00,
2013-01-20 13:52:00,16.2,5.1,30.57,NW,304,0.0,0.0,61,0.00,,,0.00,VWS V14.01,2013-01-20 20:52:00,
2013-01-20 13:57:00,16.4,5.0,30.57,NW,304,0.0,0.0,60,0.00,,,0.00,VWS V14.01,2013-01-20 20:57:00,
2013-01-20 14:00:00,16.4,5.0,30.56,NW,304,0.0,0.0,60,0.00,,,0.00,VWS V14.01,2013-01-20 21:00:00,
2013-01-20 14:02:00,16.5,5.1,30.56,NW,304,0.0,0.0,60,0.00,,,0.00,VWS V14.01,2013-01-20 21:02:00,
2013-01-20 14:07:00,16.7,5.2,30.56,NW,304,0.0,0.0,60,0.00,,,0.00,VWS V14.01,2013-01-20 21:07:00,
2013-01-20 14:12:00,16.9,5.4,30.56,NW,304,0.0,0.0,60,0.00,,,0.00,VWS V14.01,2013-01-20 21:12:00,
2013-01-20 14:17:00,16.9,5.4,30.56,NW,304,0.0,0.0,60,0.00,,,0.00,VWS V14.01,2013-01-20 21:17:00,
2013-01-20 14:22:00,17.0,5.2,30.56,NW,304,0.0,0.0,59,0.00,,,0.00,VWS V14.01,2013-01-20 21:22:00,
2013-01-20 14:27:00,17.3,5.1,30.56,NW,304,0.0,0.0,58,0.00,,,0.00,VWS V14.01,2013-01-20 21:27:00,
2013-01-20 14:30:00,17.5,5.3,30.54,NW,304,0.0,0.0,58,0.00,,BKN080,0.00,VWS V14.01,2013-01-20 21:30:00,
2013-01-20 14:33:00,17.8,5.9,30.54,NW,304,0.0,0.0,59,0.00,,,0.00,VWS V14.01,2013-01-20 21:33:00,
2013-01-20 14:38:00,18.0,6.1,30.54,NW,304,0.0,0.0,59,0.00,,,0.00,VWS V14.01,2013-01-20 21:38:00,
2013-01-20 14:43:00,18.3,6.4,30.54,NW,304,0.0,0.0,59,0.00,,,0.00,VWS V14.01,2013-01-20 21:43:00,
2013-01-20 14:48:00,18.6,7.0,30.54,NW,304,0.0,0.0,60,0.00,,,0.00,VWS V14.01,2013-01-20 21:48:00,
2013-01-20 14:53:00,19.1,7.1,30.54,NW,304,0.0,0.0,59,0.00,,,0.00,VWS V14.01,2013-01-20 21:53:00,
2013-01-20 14:58:00,19.5,7.5,30.54,NW,304,0.0,0.0,59,0.00,,,0.00,VWS V14.01,2013-01-20 21:58:00,
2013-01-20 15:00:00,19.5,7.1,30.51,NW,304,0.0,0.0,58,0.00,,,0.00,VWS V14.01,2013-01-20 22:00:00,
2013-01-20 15:03:00,19.9,7.1,30.51,NW,304,0.0,0.0,57,0.00,,,0.00,VWS V14.01,2013-01-20 22:03:00,
2013-01-20 15:08:00,20.2,7.4,30.51,NW,304,0.0,0.0,57,0.00,,,0.00,VWS V14.01,2013-01-20 22:08:00,
2013-01-20 15:13:00,20.3,7.1,30.51,NW,304,0.0,0.0,56,0.00,,,0.00,VWS V14.01,2013-01-20 22:13:00,
2013-01-20 15:18:00,20.5,7.3,30.51,NW,304,0.0,0.0,56,0.00,,,0.00,VWS V14.01,2013-01-20 22:18:00,
2013-01-20 15:23:00,20.5,7.3,30.51,NW,304,0.0,0.0,56,0.00,,,0.00,VWS V14.01,2013-01-20 22:23:00,
2013-01-20 15:28:00,20.5,7.3,30.51,NW,304,0.0,0.0,56,0.00,,,0.00,VWS V14.01,2013-01-20 22:28:00,
2013-01-20 15:30:00,20.5,7.3,30.50,NW,304,0.0,0.0,56,0.00,,,0.00,VWS V14.01,2013-01-20 22:30:00,
2013-01-20 15:33:00,20.5,7.3,30.50,NW,304,0.0,0.0,56,0.00,,,0.00,VWS V14.01,2013-01-20 22:33:00,
2013-01-20 15:38:00,20.3,7.1,30.50,NW,304,0.0,0.0,56,0.00,,,0.00,VWS V14.01,2013-01-20 22:38:00,
2013-01-20 15:43:00,20.2,7.4,30.50,NW,304,0.0,0.0,57,0.00,,,0.00,VWS V14.01,2013-01-20 22:43:00,
2013-01-20 15:48:00,20.0,7.6,30.51,NW,304,0.0,0.0,58,0.00,,,0.00,VWS V14.01,2013-01-20 22:48:00,
2013-01-20 15:53:00,19.4,7.8,30.51,NW,304,0.0,0.0,60,0.00,,,0.00,VWS V14.01,2013-01-20 22:53:00,
2013-01-20 15:58:00,18.9,8.1,30.51,NW,304,0.0,0.0,62,0.00,,,0.00,VWS V14.01,2013-01-20 22:58:00,
2013-01-20 16:00:00,18.9,8.4,30.52,NW,304,0.0,0.0,63,0.00,,BKN080,0.00,VWS V14.01,2013-01-20 23:00:00,
2013-01-20 16:03:00,18.6,8.1,30.52,NW,304,0.0,0.0,63,0.00,,,0.00,VWS V14.01,2013-01-20 23:03:00,
2013-01-20 16:08:00,18.1,8.0,30.52,NW,304,0.0,0.0,64,0.00,,,0.00,VWS V14.01,2013-01-20 23:08:00,
2013-01-20 16:13:00,17.8,8.0,30.52,NW,304,0.0,0.0,65,0.00,,,0.00,VWS V14.01,2013-01-20 23:13:00,
2013-01-20 16:18:00,17.7,8.6,30.53,NW,304,0.0,0.0,67,0.00,,,0.00,VWS V14.01,2013-01-20 23:18:00,
2013-01-20 16:23:00,17.5,8.4,30.53,NW,304,0.0,0.0,67,0.00,,,0.00,VWS V14.01,2013-01-20 23:23:00,
2013-01-20 16:28:00,17.5,8.8,30.53,NW,304,0.0,0.0,68,0.00,,,0.00,VWS V14.01,2013-01-20 23:28:00,
2013-01-20 16:30:00,17.5,9.1,30.53,NW,304,0.0,0.0,69,0.00,,BKN080,0.00,VWS V14.01,2013-01-20 23:30:00,
2013-01-20 16:33:00,17.5,9.4,30.53,NW,304,0.0,0.0,70,0.00,,,0.00,VWS V14.01,2013-01-20 23:33:00,
2013-01-20 16:38:00,17.5,9.1,30.53,NW,304,0.0,0.0,69,0.00,,,0.00,VWS V14.01,2013-01-20 23:38:00,
2013-01-20 16:43:00,17.7,9.3,30.53,NW,304,0.0,0.0,69,0.00,,,0.00,VWS V14.01,2013-01-20 23:43:00,
2013-01-20 16:48:00,17.8,9.0,30.51,NW,304,0.0,0.0,68,0.00,,,0.00,VWS V14.01,2013-01-20 23:48:00,
2013-01-20 16:53:00,18.1,8.7,30.51,NW,304,0.0,0.0,66,0.00,,,0.00,VWS V14.01,2013-01-20 23:53:00,
2013-01-20 16:58:00,18.1,8.7,30.51,NW,304,0.0,0.0,66,0.00,,,0.00,VWS V14.01,2013-01-20 23:58:00,
2013-01-20 17:00:00,18.1,8.7,30.52,NW,304,0.0,0.0,66,0.00,,BKN080,0.00,VWS V14.01,2013-01-21 00:00:00,
2013-01-20 17:03:00,18.1,8.3,30.52,NW,304,0.0,0.0,65,0.00,,,0.00,VWS V14.01,2013-01-21 00:03:00,
2013-01-20 17:08:00,18.0,8.6,30.52,NW,304,0.0,0.0,66,0.00,,,0.00,VWS V14.01,2013-01-21 00:08:00,
2013-01-20 17:13:00,17.8,8.4,30.52,NW,304,0.0,0.0,66,0.00,,,0.00,VWS V14.01,2013-01-21 00:13:00,
2013-01-20 17:18:00,17.7,8.6,30.52,NW,304,0.0,0.0,67,0.00,,,0.00,VWS V14.01,2013-01-21 00:18:00,
2013-01-20 17:23:00,17.5,8.4,30.52,NW,304,0.0,0.0,67,0.00,,,0.00,VWS V14.01,2013-01-21 00:23:00,
2013-01-20 17:28:00,17.3,8.2,30.52,NW,304,0.0,0.0,67,0.00,,,0.00,VWS V14.01,2013-01-21 00:28:00,
2013-01-20 17:30:00,17.3,8.2,30.53,NW,304,0.0,0.0,67,0.00,,BKN080,0.00,VWS V14.01,2013-01-21 00:30:00,
2013-01-20 17:33:00,17.5,8.4,30.53,NW,304,0.0,0.0,67,0.00,,,0.00,VWS V14.01,2013-01-21 00:33:00,
2013-01-20 17:38:00,17.7,8.6,30.53,NW,304,0.0,0.0,67,0.00,,,0.00,VWS V14.01,2013-01-21 00:38:00,
2013-01-20 17:43:00,17.7,8.3,30.53,NW,304,0.0,0.0,66,0.00,,,0.00,VWS V14.01,2013-01-21 00:43:00,
2013-01-20 17:48:00,17.5,8.1,30.52,NW,304,0.0,0.0,66,0.00,,,0.00,VWS V14.01,2013-01-21 00:48:00,
2013-01-20 17:53:00,17.5,8.1,30.52,NW,304,0.0,0.0,66,0.00,,,0.00,VWS V14.01,2013-01-21 00:53:00,
2013-01-20 17:58:00,17.2,7.8,30.52,NW,304,0.0,0.0,66,0.00,,,0.00,VWS V14.01,2013-01-21 00:58:00,
2013-01-20 18:00:00,17.2,8.1,30.52,NW,304,0.0,0.0,67,0.00,,BKN080,0.00,VWS V14.01,2013-01-21 01:00:00,
2013-01-20 18:03:00,17.0,7.9,30.52,NW,304,0.0,0.0,67,0.00,,,0.00,VWS V14.01,2013-01-21 01:03:00,
2013-01-20 18:08:00,17.0,7.9,30.52,NW,304,0.0,0.0,67,0.00,,,0.00,VWS V14.01,2013-01-21 01:08:00,
2013-01-20 18:13:00,16.9,7.8,30.52,NW,304,0.0,0.0,67,0.00,,,0.00,VWS V14.01,2013-01-21 01:13:00,
2013-01-20 18:18:00,16.5,7.8,30.53,NW,304,0.0,0.0,68,0.00,,,0.00,VWS V14.01,2013-01-21 01:18:00,
2013-01-20 18:23:00,16.5,7.8,30.53,NW,304,0.0,0.0,68,0.00,,,0.00,VWS V14.01,2013-01-21 01:23:00,
2013-01-20 18:28:00,16.5,7.8,30.53,NW,304,0.0,0.0,68,0.00,,,0.00,VWS V14.01,2013-01-21 01:28:00,
2013-01-20 18:30:00,16.5,7.8,30.53,NW,304,0.0,0.0,68,0.00,,,0.00,VWS V14.01,2013-01-21 01:30:00,
2013-01-20 18:33:00,16.5,7.8,30.53,NW,304,0.0,0.0,68,0.00,,,0.00,VWS V14.01,2013-01-21 01:33:00,
2013-01-20 18:38:00,16.4,7.7,30.53,NW,304,0.0,0.0,68,0.00,,,0.00,VWS V14.01,2013-01-21 01:38:00,
2013-01-20 18:43:00,16.4,7.7,30.53,NW,304,0.0,0.0,68,0.00,,,0.00,VWS V14.01,2013-01-21 01:43:00,
2013-01-20 18:48:00,16.4,7.7,30.54,NW,304,0.0,0.0,68,0.00,,,0.00,VWS V14.01,2013-01-21 01:48:00,
2013-01-20 18:53:00,16.1,7.4,30.54,NW,304,0.0,0.0,68,0.00,,,0.00,VWS V14.01,2013-01-21 01:53:00,
2013-01-20 18:58:00,15.9,7.2,30.54,SE,134,0.0,1.0,68,0.00,,,0.00,VWS V14.01,2013-01-21 01:58:00,
2013-01-20 19:00:00,15.9,7.2,30.53,SE,134,0.0,1.0,68,0.00,,,0.00,VWS V14.01,2013-01-21 02:00:00,
2013-01-20 19:03:00,15.7,7.3,30.53,SE,133,0.0,0.0,69,0.00,,,0.00,VWS V14.01,2013-01-21 02:03:00,
2013-01-20 19:08:00,15.4,6.7,30.53,SE,133,0.0,1.0,68,0.00,,,0.00,VWS V14.01,2013-01-21 02:08:00,
2013-01-20 19:13:00,15.1,6.5,30.54,ESE,105,0.0,1.0,68,0.00,,,0.00,VWS V14.01,2013-01-21 02:13:00,
2013-01-20 19:18:00,14.9,6.6,30.54,ESE,105,0.0,1.0,69,0.00,,,0.00,VWS V14.01,2013-01-21 02:18:00,
2013-01-20 19:23:00,14.8,6.8,30.54,ESE,105,0.0,1.0,70,0.00,,,0.00,VWS V14.01,2013-01-21 02:23:00,
2013-01-20 19:28:00,14.6,6.6,30.53,ESE,105,0.0,1.0,70,0.00,,,0.00,VWS V14.01,2013-01-21 02:28:00,
2013-01-20 19:30:00,14.6,6.6,30.53,ESE,105,0.0,1.0,70,0.00,,BKN080,0.00,VWS V14.01,2013-01-21 02:30:00,
2013-01-20 19:33:00,14.6,6.6,30.53,ESE,105,0.0,0.0,70,0.00,,,0.00,VWS V14.01,2013-01-21 02:33:00,
2013-01-20 19:38:00,14.6,6.9,30.53,ESE,105,0.0,0.0,71,0.00,,,0.00,VWS V14.01,2013-01-21 02:38:00,
2013-01-20 19:43:00,14.4,6.7,30.54,East,99,0.0,1.0,71,0.00,,,0.00,VWS V14.01,2013-01-21 02:43:00,
2013-01-20 19:48:00,14.4,6.7,30.54,East,98,0.0,1.0,71,0.00,,,0.00,VWS V14.01,2013-01-21 02:48:00,
2013-01-20 19:53:00,14.3,6.6,30.54,East,98,0.0,1.0,71,0.00,,,0.00,VWS V14.01,2013-01-21 02:53:00,
2013-01-20 19:58:00,14.1,6.4,30.54,East,98,0.0,1.0,71,0.00,,,0.00,VWS V14.01,2013-01-21 02:58:00,
2013-01-20 20:00:00,14.1,6.4,30.54,East,98,0.0,1.0,71,0.00,,BKN080,0.00,VWS V14.01,2013-01-21 03:00:00,
2013-01-20 20:03:00,14.0,6.3,30.54,East,98,0.0,0.0,71,0.00,,,0.00,VWS V14.01,2013-01-21 03:03:00,
2013-01-20 20:08:00,13.8,6.2,30.54,East,98,0.0,0.0,71,0.00,,,0.00,VWS V14.01,2013-01-21 03:08:00,
2013-01-20 20:13:00,13.6,6.0,30.54,East,99,0.0,0.0,71,0.00,,,0.00,VWS V14.01,2013-01-21 03:13:00,
2013-01-20 20:18:00,13.5,5.9,30.54,East,98,0.0,0.0,71,0.00,,,0.00,VWS V14.01,2013-01-21 03:18:00,
2013-01-20 20:23:00,13.3,5.7,30.54,East,99,0.0,0.0,71,0.00,,,0.00,VWS V14.01,2013-01-21 03:23:00,
2013-01-20 20:28:00,13.1,5.8,30.56,East,98,0.0,0.0,72,0.00,,,0.00,VWS V14.01,2013-01-21 03:28:00,
2013-01-20 20:30:00,13.1,5.8,30.56,East,98,0.0,0.0,72,0.00,,,0.00,VWS V14.01,2013-01-21 03:30:00,
2013-01-20 20:33:00,13.1,5.8,30.56,East,98,0.0,0.0,72,0.00,,,0.00,VWS V14.01,2013-01-21 03:33:00,
2013-01-20 20:38:00,13.1,5.8,30.56,East,98,0.0,0.0,72,0.00,,,0.00,VWS V14.01,2013-01-21 03:38:00,
2013-01-20 20:43:00,13.1,5.8,30.56,East,99,0.0,0.0,72,0.00,,,0.00,VWS V14.01,2013-01-21 03:43:00,
2013-01-20 20:48:00,13.1,5.8,30.56,East,98,0.0,0.0,72,0.00,,,0.00,VWS V14.01,2013-01-21 03:48:00,
2013-01-20 20:53:00,13.1,5.8,30.56,East,99,0.0,0.0,72,0.00,,,0.00,VWS V14.01,2013-01-21 03:53:00,
2013-01-20 20:58:00,13.1,6.1,30.56,East,98,0.0,0.0,73,0.00,,,0.00,VWS V14.01,2013-01-21 03:58:00,
2013-01-20 21:00:00,13.1,6.1,30.56,East,98,0.0,0.0,73,0.00,,,0.00,VWS V14.01,2013-01-21 04:00:00,
2013-01-20 21:03:00,13.1,6.1,30.56,East,99,0.0,0.0,73,0.00,,,0.00,VWS V14.01,2013-01-21 04:03:00,
2013-01-20 21:08:00,13.1,6.1,30.56,East,99,0.0,0.0,73,0.00,,,0.00,VWS V14.01,2013-01-21 04:08:00,
2013-01-20 21:13:00,13.1,5.8,30.55,East,98,0.0,0.0,72,0.00,,,0.00,VWS V14.01,2013-01-21 04:13:00,
2013-01-20 21:18:00,13.1,5.8,30.55,East,98,0.0,0.0,72,0.00,,,0.00,VWS V14.01,2013-01-21 04:18:00,
2013-01-20 21:23:00,12.9,5.6,30.55,East,98,0.0,0.0,72,0.00,,,0.00,VWS V14.01,2013-01-21 04:23:00,
2013-01-20 21:28:00,12.9,5.9,30.54,East,98,0.0,0.0,73,0.00,,,0.00,VWS V14.01,2013-01-21 04:28:00,
2013-01-20 21:30:00,12.8,5.8,30.54,East,98,0.0,0.0,73,0.00,,BKN080,0.00,VWS V14.01,2013-01-21 04:30:00,
2013-01-20 21:33:00,12.8,5.8,30.54,East,98,0.0,0.0,73,0.00,,,0.00,VWS V14.01,2013-01-21 04:33:00,
2013-01-20 21:38:00,12.6,5.6,30.54,East,98,0.0,0.0,73,0.00,,,0.00,VWS V14.01,2013-01-21 04:38:00,
2013-01-20 21:43:00,12.4,5.4,30.54,East,98,0.0,0.0,73,0.00,,,0.00,VWS V14.01,2013-01-21 04:43:00,
2013-01-20 21:48:00,12.3,5.3,30.54,East,98,0.0,0.0,73,0.00,,,0.00,VWS V14.01,2013-01-21 04:48:00,
2013-01-20 21:53:00,12.1,5.4,30.54,East,99,0.0,0.0,74,0.00,,,0.00,VWS V14.01,2013-01-21 04:53:00,
2013-01-20 21:58:00,12.1,5.4,30.54,East,98,0.0,0.0,74,0.00,,,0.00,VWS V14.01,2013-01-21 04:58:00,
2013-01-20 22:00:00,12.1,5.4,30.54,East,98,0.0,0.0,74,0.00,,,0.00,VWS V14.01,2013-01-21 05:00:00,
2013-01-20 22:01:00,12.1,5.4,30.54,East,98,0.0,0.0,74,0.00,,,0.00,VWS V14.01,2013-01-21 05:01:00,
2013-01-20 22:03:00,12.1,5.4,30.54,East,99,0.0,0.0,74,0.00,,,0.00,VWS V14.01,2013-01-21 05:03:00,
2013-01-20 22:08:00,12.1,5.4,30.54,East,98,0.0,0.0,74,0.00,,,0.00,VWS V14.01,2013-01-21 05:08:00,
2013-01-20 22:13:00,12.1,5.7,30.52,East,98,0.0,0.0,75,0.00,,,0.00,VWS V14.01,2013-01-21 05:13:00,
2013-01-20 22:18:00,12.1,5.4,30.52,East,98,0.0,0.0,74,0.00,,,0.00,VWS V14.01,2013-01-21 05:18:00,
2013-01-20 22:23:00,12.1,5.4,30.52,East,98,0.0,0.0,74,0.00,,,0.00,VWS V14.01,2013-01-21 05:23:00,
2013-01-20 22:28:00,12.1,5.4,30.51,East,98,0.0,0.0,74,0.00,,,0.00,VWS V14.01,2013-01-21 05:28:00,
2013-01-20 22:30:00,12.1,5.4,30.51,East,98,0.0,0.0,74,0.00,,BKN080,0.00,VWS V14.01,2013-01-21 05:30:00,
2013-01-20 22:33:00,12.1,5.4,30.51,East,98,0.0,0.0,74,0.00,,,0.00,VWS V14.01,2013-01-21 05:33:00,
2013-01-20 22:38:00,11.7,5.0,30.51,East,98,0.0,0.0,74,0.00,,,0.00,VWS V14.01,2013-01-21 05:38:00,
2013-01-20 22:43:00,11.6,4.9,30.51,East,99,0.0,0.0,74,0.00,,,0.00,VWS V14.01,2013-01-21 05:43:00,
2013-01-20 22:48:00,11.4,5.0,30.51,East,98,0.0,0.0,75,0.00,,,0.00,VWS V14.01,2013-01-21 05:48:00,
2013-01-20 22:53:00,11.4,4.7,30.51,East,98,0.0,0.0,74,0.00,,,0.00,VWS V14.01,2013-01-21 05:53:00,
2013-01-20 22:58:00,11.2,4.5,30.51,East,98,0.0,0.0,74,0.00,,,0.00,VWS V14.01,2013-01-21 05:58:00,
2013-01-20 23:00:00,11.2,4.5,30.51,East,99,0.0,0.0,74,0.00,,BKN080,0.00,VWS V14.01,2013-01-21 06:00:00,
2013-01-20 23:03:00,10.9,4.6,30.51,East,98,0.0,0.0,75,0.00,,,0.00,VWS V14.01,2013-01-21 06:03:00,
2013-01-20 23:08:00,10.9,4.6,30.51,East,98,0.0,0.0,75,0.00,,,0.00,VWS V14.01,2013-01-21 06:08:00,
2013-01-20 23:13:00,10.7,4.3,30.48,East,98,0.0,0.0,75,0.00,,,0.00,VWS V14.01,2013-01-21 06:13:00,
2013-01-20 23:18:00,10.5,4.2,30.48,East,98,0.0,0.0,75,0.00,,,0.00,VWS V14.01,2013-01-21 06:18:00,
2013-01-20 23:24:00,10.2,3.9,30.48,East,98,0.0,0.0,75,0.00,,,0.00,VWS V14.01,2013-01-21 06:24:00,
2013-01-20 23:29:00,10.4,4.6,30.48,NE,37,0.0,0.0,77,0.00,,,0.00,VWS V14.01,2013-01-21 06:29:00,
2013-01-20 23:30:00,10.4,4.6,30.48,NE,37,0.0,0.0,77,0.00,,,0.00,VWS V14.01,2013-01-21 06:30:00,
2013-01-20 23:34:00,10.7,5.2,30.48,NE,37,0.0,0.0,78,0.00,,,0.00,VWS V14.01,2013-01-21 06:34:00,
2013-01-20 23:39:00,10.9,5.1,30.48,NE,37,0.0,0.0,77,0.00,,,0.00,VWS V14.01,2013-01-21 06:39:00,
2013-01-20 23:44:00,10.9,5.1,30.46,NE,37,0.0,0.0,77,0.00,,,0.00,VWS V14.01,2013-01-21 06:44:00,
2013-01-20 23:49:00,10.7,4.3,30.46,NE,37,0.0,0.0,75,0.00,,,0.00,VWS V14.01,2013-01-21 06:49:00,
2013-01-20 23:54:00,10.4,4.6,30.46,NE,37,0.0,0.0,77,0.00,,,0.00,VWS V14.01,2013-01-21 06:54:00,
2013-01-20 23:59:00,10.5,4.7,30.45,NE,37,0.0,0.0,77,0.00,,,0.00,VWS V14.01,2013-01-21 06:59:00,